Flag for U.S.A. Weather past 2 weeks in Metairie, Louisiana, U.S.A.

Now
76 °F

Passing clouds.


Feels Like: 77 °F
Forecast: 71 / 88 °F
Wind: 5 mph from Southeast

Location: New Orleans International Airport

Current Time: Aug 30, 2015 at 1:42:16 AM

Latest Report: Aug 30, 2015 at 12:53 AM


Visibility: 10 mi

Pressure: 30.03 "Hg

Humidity: 74%

Dew point: 67 °F

Location of MetairieLocation

Historic Weather in Metairie — Graph

°F

Metairie temperature yesterday

Maximum temperature yesterday: 90 °F (at 3:53 PM)
Minimum temperature yesterday: 76 °F (at 4:53 AM)
Average temperature yesterday: 83 °F

Past Weeks' High & Low Weather Summary

 TemperatureHumidityPressure
High95 °F (Aug 24, 1:53 PM)91% (Aug 22, 4:53 AM)30.09 "Hg (Aug 22, 4:53 AM)
Low70 °F (Aug 28, 3:53 AM)32% (Aug 26, 3:53 PM)29.89 "Hg (Aug 19, 4:53 PM)
Average82 °F67%29.99 "Hg
* Reported Aug 14 11:53 PM — Aug 29 11:53 PM, Metairie, Weather by CustomWeather, © 2015

Note: Actual official high and low records may vary slightly from our data, if they occured in-between our weather recording intervals... More about our weather records

Advertising

Metairie weather history for previous 24 hours

 ConditionsComfort  
Time TempWeatherWind HumidityBarometerVisibility
11:53 PM
Sat, Aug 29
78 °FPassing clouds.7 mph66%30.03 "Hg10 mi
10:53 PM79 °FPassing clouds.7 mph67%30.03 "Hg10 mi
9:53 PM79 °FPassing clouds.6 mph69%30.03 "Hg10 mi
8:53 PM82 °FPassing clouds.7 mph60%30.01 "Hg10 mi
7:53 PM84 °FPartly sunny.8 mph57%30.00 "Hg10 mi
6:53 PM85 °FBroken clouds.8 mph53%29.99 "Hg10 mi
5:53 PM86 °FScattered clouds.9 mph49%29.99 "Hg10 mi
4:53 PM88 °FScattered clouds.8 mph46%29.99 "Hg10 mi
3:53 PM90 °FScattered clouds.3 mph45%30.01 "Hg10 mi
2:53 PM88 °FScattered clouds.6 mph43%30.03 "Hg10 mi
1:53 PM89 °FPartly sunny.5 mph45%30.05 "Hg10 mi
12:53 PM89 °FScattered clouds.7 mph43%30.06 "Hg10 mi
11:53 AM87 °FScattered clouds.8 mph50%30.08 "Hg10 mi
10:53 AM86 °FScattered clouds.7 mph51%30.08 "Hg10 mi
9:53 AM84 °FPassing clouds.6 mph51%30.07 "Hg10 mi
8:53 AM82 °FScattered clouds.6 mph56%30.06 "Hg10 mi
7:53 AM79 °FPartly sunny.5 mph72%30.05 "Hg10 mi
6:53 AM77 °FPassing clouds.3 mph77%30.03 "Hg10 mi
5:53 AM77 °FPassing clouds.6 mph77%30.00 "Hg10 mi
4:53 AM76 °FPassing clouds.7 mph77%29.99 "Hg10 mi
3:53 AM78 °FPassing clouds.7 mph71%29.99 "Hg10 mi
1:53 AM79 °FPassing clouds.8 mph67%30.01 "Hg10 mi
Weather by CustomWeather, © 2015

See weather overviewHow to use our weather pages